Home   Weather   Stavanger   Past weeks
Flag for Norway

Past Weather in Stavanger, Norway — Yesterday and Last 2 Weeks

Now
57 °F

Broken clouds.


Feels Like: 55 °F
Forecast: 60 / 56 °F
Wind: 12 mph from Northwest

Location: Stavanger / Sola

Current Time: Jul 15, 2019 at 8:30:34 pm

Latest Report: Jul 15, 2019 at 7:50 pm


Visibility: N/A

Pressure: 29.98 "Hg

Humidity: 82%

Dew Point: 52 °F

Location of StavangerLocation

Past Weather in Stavanger — Graph

°F

Stavanger Temperature Yesterday

Maximum temperature yesterday: 59 °F (at 12:50 pm)
Minimum temperature yesterday: 52 °F (at 12:20 am)
Average temperature yesterday: 55 °F

High & Low Weather Summary for the Past Weeks

 TemperatureHumidityPressure
High63 °F (Jul 10, 4:50 pm)100% (Jul 1, 11:20 am)30.12 "Hg (Jul 1, 11:20 am)
Low45 °F (Jul 5, 4:50 am)55% (Jul 2, 1:50 pm)29.53 "Hg (Jul 6, 6:50 am)
Average54 °F80%29.91 "Hg
* Reported Jun 30 7:20 pm — Jul 15 7:20 pm, Stavanger. Weather by CustomWeather, © 2019

Note: Actual official high and low records may vary slightly from our data, if they occured in-between our weather recording intervals... More about our weather records

Advertising

Stavanger Weather History for the Previous 24 Hours

Scroll right to see more
 ConditionsComfort  
Time TempWeatherWind HumidityBarometerVisibility
7:20 pm
Mon, Jul 15
59 °FBroken clouds.15 mph82%29.98 "HgN/A
6:50 pm57 °FScattered clouds.13 mph82%29.98 "HgN/A
6:20 pm57 °FScattered clouds.14 mph82%29.98 "HgN/A
5:50 pm59 °FPassing clouds.13 mph77%29.98 "HgN/A
5:20 pm59 °FPassing clouds.20 mph77%29.98 "HgN/A
4:50 pm59 °FPassing clouds.20 mph77%29.98 "HgN/A
4:20 pm59 °FPassing clouds.18 mph77%29.98 "HgN/A
3:50 pm61 °FPassing clouds.21 mph72%30.01 "HgN/A
3:20 pm59 °FPassing clouds.21 mph77%29.98 "HgN/A
2:50 pm59 °FPassing clouds.20 mph77%30.01 "HgN/A
2:20 pm59 °FPassing clouds.23 mph72%29.98 "HgN/A
1:50 pm61 °FPassing clouds.24 mph68%29.98 "HgN/A
1:20 pm61 °FPassing clouds.25 mph68%29.98 "HgN/A
12:50 pm59 °FPassing clouds.26 mph72%29.98 "HgN/A
12:20 pm59 °FPassing clouds.26 mph72%29.98 "HgN/A
11:50 am59 °FPassing clouds.20 mph72%29.98 "HgN/A
11:20 am59 °FPassing clouds.22 mph68%30.01 "HgN/A
10:50 am59 °FPassing clouds.15 mph68%30.01 "HgN/A
10:20 am59 °FPassing clouds.18 mph72%30.01 "HgN/A
9:50 am57 °FPassing clouds.18 mph72%30.01 "HgN/A
9:20 am55 °FPassing clouds.22 mph77%30.01 "HgN/A
8:50 am55 °FPassing clouds.20 mph77%30.01 "HgN/A
8:20 am54 °FPassing clouds.16 mph77%30.01 "HgN/A
7:50 am54 °FScattered clouds.14 mph77%30.01 "HgN/A
7:20 am52 °FScattered clouds.17 mph82%30.01 "HgN/A
6:50 am52 °FScattered clouds.17 mph82%30.01 "HgN/A
6:20 am52 °FScattered clouds.16 mph82%30.01 "HgN/A
5:50 am50 °FScattered clouds.13 mph88%30.01 "HgN/A
5:20 am50 °FScattered clouds.14 mph88%30.01 "HgN/A
4:50 am50 °FPassing clouds.15 mph88%30.01 "HgN/A
4:20 am50 °FPassing clouds.18 mph88%30.01 "HgN/A
3:50 am50 °FClear.17 mph88%30.01 "Hg10 mi
3:20 am50 °FPassing clouds.14 mph88%30.01 "HgN/A
2:50 am50 °FPassing clouds.14 mph88%30.01 "HgN/A
2:20 am50 °FPassing clouds.17 mph88%30.01 "HgN/A
1:50 am52 °FPassing clouds.13 mph82%30.01 "HgN/A
1:20 am52 °FPassing clouds.16 mph82%30.01 "HgN/A
12:50 am52 °FPassing clouds.15 mph82%30.04 "Hg6 mi
12:20 am52 °FPassing clouds.18 mph82%30.04 "HgN/A
11:50 pm
Sun, Jul 14
52 °FPassing clouds.18 mph82%30.04 "HgN/A
11:20 pm52 °FPassing clouds.24 mph82%30.04 "HgN/A
10:50 pm52 °FPassing clouds.26 mph82%30.04 "HgN/A
10:20 pm52 °FPassing clouds.24 mph82%30.01 "HgN/A
9:50 pm54 °FPassing clouds.24 mph77%30.01 "HgN/A
9:20 pm54 °FPassing clouds.22 mph77%30.04 "HgN/A
8:50 pm55 °FPassing clouds.23 mph72%30.04 "HgN/A
8:20 pm55 °FPassing clouds.25 mph72%30.04 "HgN/A
Weather by CustomWeather, © 2019

See weather overview